Tracking 28790 objects as of 19-Apr-2024
HD Live streaming from Space Station
objects crossing your sky now

DELTA 1 DEB

Track DELTA 1 DEB now!
10-day predictions


NORAD ID: 12255
Int'l Code: 1978-026CY
Perigee: 881.7 km
Apogee: 908.8 km
Inclination: 98.9 °
Period: 102.7 minutes
Semi major axis: 7266 km
RCS: 0.0045 m2 (small)
Launch date: March 5, 1978
Source: United States (US)
Launch site: AIR FORCE WESTERN TEST RANGE (AFWTR)

Note: This is SATELLITE DEBRIS
Your satellite tracking list
Your tracking list is empty




NASA's NSSDC Master Catalog

Two Line Element Set (TLE):
1 12255U 78026CY  24109.31599358  .00001337  00000-0  90928-3 0  9992
2 12255  98.8662  59.0772 0018663  61.7380  95.5360 14.01643170576389
Source of the keplerian elements: AFSPC